Date,TemperatureHighF,TemperatureAvgF,TemperatureLowF,DewpointHighF,DewpointAvgF,DewpointLowF,HumidityHigh,HumidityAvg,HumidityLow,PressureMaxIn,PressureMinIn,WindSpeedMaxMPH,WindSpeedAvgMPH,GustSpeedMaxMPH,PrecipitationSumIn
2013-8-1,74.2,67.1,65.7,67.0,62.5,-99.9,95,88,75,30.02,29.84,21,-6,35,0.09
2013-8-2,82.5,71.2,64.6,66.0,63.6,58.0,97,79,43,29.90,29.80,16,4,20,0.01
2013-8-3,81.0,71.0,63.9,65.0,61.0,51.0,94,72,38,29.89,29.80,13,4,21,0.01
2013-8-4,76.1,67.9,59.2,62.0,56.6,52.0,91,69,43,29.96,29.85,22,6,29,0.07
2013-8-5,75.0,66.9,60.1,58.0,51.2,43.0,86,59,35,30.06,29.96,25,8,30,0.00
2013-8-6,79.2,67.1,53.8,62.0,56.2,51.0,94,71,40,30.13,30.05,16,3,16,0.00
2013-8-7,74.6,69.7,64.3,67.0,63.1,58.0,93,80,70,30.14,30.04,17,6,21,0.05
2013-8-8,80.3,74.2,68.3,73.0,70.0,66.0,94,87,75,30.04,29.96,19,10,24,0.05
2013-8-9,79.1,73.9,71.7,75.0,71.9,71.0,97,94,85,29.97,29.77,21,6,26,1.32
2013-8-10,83.4,73.4,64.9,71.0,61.9,54.0,98,70,43,30.07,29.85,18,6,23,0.00
2013-8-11,79.6,68.8,55.8,66.0,57.4,52.0,94,69,48,30.13,30.00,12,3,15,0.00
2013-8-12,79.7,71.2,61.1,68.0,62.4,59.0,93,75,50,30.04,29.90,11,3,19,0.00
2013-8-13,75.7,69.6,66.1,70.0,65.8,63.0,94,88,79,29.91,29.66,14,5,30,0.51
2013-8-14,71.5,65.7,56.6,62.0,53.6,50.0,90,66,51,30.03,29.75,22,9,28,0.51
2013-8-15,76.2,64.8,55.0,60.0,54.0,50.0,90,70,41,30.14,30.03,13,4,16,0.00
2013-8-16,77.3,66.4,56.5,65.0,57.9,54.0,93,76,45,30.20,30.13,6,1,10,0.00
2013-8-17,78.4,66.7,56.6,63.0,58.8,53.0,96,78,42,30.30,30.21,7,1,7,0.00
2013-8-18,74.8,66.8,59.8,66.0,61.8,58.0,95,84,62,30.28,30.11,5,1,6,0.00
2013-8-19,79.3,70.1,61.1,70.0,64.2,60.0,96,82,61,30.11,30.00,10,2,12,0.00
2013-8-20,87.3,71.4,59.6,72.0,64.2,59.0,97,80,49,30.13,30.04,7,1,9,0.00
2013-8-21,84.9,72.8,61.1,71.0,65.2,60.0,96,78,52,30.18,30.02,11,4,19,0.00
2013-8-22,81.2,74.7,67.4,74.0,69.7,65.0,93,84,75,30.05,29.83,14,6,19,0.00
2013-8-23,75.7,71.8,67.1,69.0,60.5,51.0,84,68,43,30.15,29.88,20,11,27,0.00
2013-8-24,75.9,66.4,56.2,61.0,55.1,50.0,92,69,46,30.35,30.16,21,7,22,0.00
2013-8-25,79.8,68.0,57.0,64.0,59.3,55.0,97,76,49,30.40,30.18,22,6,25,0.00
2013-8-26,72.4,69.1,63.3,70.0,64.7,59.0,96,86,70,30.19,29.89,21,8,26,0.28
2013-8-27,80.7,73.4,68.9,73.0,69.0,67.0,96,86,69,29.91,29.82,18,7,22,0.59
2013-8-28,87.2,71.8,65.2,73.0,68.1,65.0,98,89,59,29.91,29.82,16,2,21,0.00
2013-8-29,82.4,72.0,66.6,70.0,67.4,66.0,97,86,63,30.04,29.91,11,3,11,0.00
2013-8-30,81.9,73.7,66.6,72.0,68.2,65.0,94,83,64,30.01,29.81,19,5,19,0.00
2013-8-31,81.8,75.7,70.7,75.0,71.9,69.0,93,88,77,29.82,29.73,20,10,29,0.00